Regional Weather Roundup
Issued by NWS

Home | Current Version | Previous Version | Graphics & Text | Print | Product List | Glossary On
Versions: 1 2 3 4 5 6 7 8 9 10 11 12 13 14 15 16 17 18 19 20 21 22 23 24 25 26 27 28 29 30 31 32 33 34 35 36 37 38 39 40 41 42 43 44 45 46 47 48 49 50
000
ASUS44 KMEG 222110
RWRTN
TENNESSEE HOURLY STATE WEATHER ROUNDUP
NATIONAL WEATHER SERVICE MEMPHIS TN
400 PM CDT THU JUN 22 2017

TNZ002-004-019-021-049-052-054-088>092-222200-
WEST TENNESSEE

CITY           SKY/WX    TMP DP  RH WIND       PRES   REMARKS
MEMPHIS INTL   CLOUDY    89  74  60 S15G25    29.76F HX  98
NWS MEMPHIS      N/A     89 N/A N/A MISG        N/A
JACKSON        CLOUDY    87  75  67 VRB6      29.80F HX  96
COVINGTON      MOSUNNY   84  77  79 S7        29.77F HX  94
UNION CITY     MOSUNNY   86  75  70 S13       29.78F HX  95
BOLIVAR        MOSUNNY   86  73  66 SE9G15    29.79F HX  93
PARIS          PTSUNNY   84  75  74 S13G18    29.82F HX  92
HUNTINGDON     MOSUNNY   86  75  70 S12G18    29.81F HX  95
LEXINGTON      PTSUNNY   84  75  74 SE9G16    29.84S HX  92
SELMER         MOSUNNY   84  73  70 S13G18    29.83S HX  91
SAVANNAH       MOSUNNY   84  75  74 S14       29.83S HX  92
$$

TNZ008-025-027-028-033-062-065-066-222200-
NORTH MIDDLE TENNESSEE

CITY           SKY/WX    TMP DP  RH WIND       PRES   REMARKS
NASHVILLE      LGT RAIN  81  75  82 S16       29.91F
PORTLAND       CLOUDY    75  73  94 S9        29.91S
CLARKSVILLE    PTSUNNY   79  75  87 S10       29.86F
SMYRNA         LGT RAIN  78  75  90 S9        29.93R FOG
COOKEVILLE     CLOUDY    75  72  88 S8G16     29.96S
GALLATIN       CLOUDY    77  73  88 S8        29.94S
CROSSVILLE     CLOUDY    70  68  93 S8        30.03F
$$

TNZ061-075-076-078-094-096-097-222200-
SOUTH MIDDLE TENNESSEE

CITY           SKY/WX    TMP DP  RH WIND       PRES   REMARKS
FAYETTEVILLE   CLOUDY    77  75  94 S13       29.94F
TULLAHOMA      CLOUDY    73  72  94 S7        29.97S
WINCHESTER     PTSUNNY   75  73  94 S6          N/A
MCMINNVILLE    CLOUDY    77  75  94 CALM      29.97S
COLUMBIA       PTSUNNY   82  75  78 S16G23    29.88S
SHELBYVILLE    PTSUNNY   75  73  94 S7G13     29.94R FOG
$$

TNZ017-018-042-046-047-222200-
NORTHEAST TENNESSEE

CITY           SKY/WX    TMP DP  RH WIND       PRES   REMARKS
TRI CITIES     LGT RAIN  73  70  90 E3        30.09F
ELIZABETHTON   CLOUDY    73  72  94 E5        30.10F
$$

TNZ012-013-036-069-073-074-222200-
CENTRAL EAST TENNESSEE

CITY           SKY/WX    TMP DP  RH WIND       PRES   REMARKS
KNOXVILLE      LGT RAIN  74  71  91 E6        30.02F
OAK RIDGE      LGT RAIN  76  71  85 CALM      30.03F
DOWNTOWN KNOXV SUNNY     75  73  94 SE7       30.03F
GATLINBURG     SUNNY     73  70  88 CALM      30.04F
MORRISTOWN     PTSUNNY   75  72  88 E7        30.06F
JACKSBORO      CLOUDY    73  72  94 VRB6      30.06F
$$

TNZ083-085-099-222200-
SOUTHEAST TENNESSEE

CITY           SKY/WX    TMP DP  RH WIND       PRES   REMARKS
CHATTANOOGA    CLOUDY    77  73  87 SE6       29.99F
$$

SKY/WX REPORTED AS FAIR MEANS FEW OR NO CLOUDS BELOW
12 THOUSAND FEET.





USA.gov is the U.S. government's official web portal to all federal, state and local government web resources and services.